Theta_e
311 313 314 315 316 316 316 316 313 312 311 309 306 306 306 303 302 303 304 306 308 309 310 310 315 316 320 318 328 328 322 321 324 326 327 327 323 325 328 328 328 328 329 330 329
311 309 311 312 314 315 316 317 316 314 313 312 310 308 306 307 305 302 304 304 304 305 306 308 308 312 319 324 326 325 319 321 320 325 327 327 324 325 324 326 329 329 328 329 329
309 311 309 308 311 313 314 316 317 317 315 312 311 310 309 310 307 304 303 303 303 303 304 307 309 314 323 322 324 325 322 321 324 325 325 326 325 328 322 322 325 325 327 329 330
307 307 309 309 307 311 311 314 315 317 317 314 312 310 312 312 305 311 309 304 303 302 304 308 315 323 323 320 323 325 325 324 324 324 324 324 327 326 326 323 326 327 326 328 330
303 305 308 309 310 307 309 311 313 315 317 317 313 311 313 310 309 314 315 312 304 302 304 311 319 320 321 320 319 318 320 323 324 321 322 322 322 323 326 326 326 327 327 327 330
305 305 305 306 308 308 309 309 310 313 314 317 315 312 312 311 309 308 314 313 311 303 306 309 313 319 319 320 315 315 318 319 320 321 322 321 322 322 324 324 325 325 325 327 328
304 303 304 304 305 307 307 307 307 311 312 314 317 313 312 312 311 307 313 315 314 308 303 306 313 320 318 319 318 318 319 317 318 320 320 321 319 320 322 323 324 325 325 325 326
304 304 302 303 303 304 306 306 307 308 311 313 316 316 314 313 313 310 308 318 318 314 306 307 312 321 321 320 320 318 318 318 316 318 320 320 318 318 321 321 322 322 322 323 323
303 304 302 302 302 303 305 304 306 308 310 311 314 316 314 313 313 313 309 309 318 319 317 315 314 320 320 318 318 317 316 317 316 317 318 318 318 317 319 319 318 319 319 321 321
302 302 302 302 301 303 303 304 304 307 309 311 312 314 313 313 313 313 311 308 312 319 320 318 316 316 316 319 316 317 318 315 314 314 316 317 317 315 319 318 318 318 320 320 319
300 300 301 301 301 301 303 304 305 305 307 310 311 312 312 313 314 313 313 310 317 318 318 319 316 316 317 318 314 315 316 315 315 315 317 315 315 315 315 316 316 317 317 318 319
300 300 301 301 300 300 302 303 304 306 308 308 311 312 313 312 312 312 313 310 313 317 317 318 317 313 313 316 317 314 316 314 315 314 316 314 315 313 313 314 315 315 316 317 317
299 299 299 300 301 301 302 302 304 304 307 308 309 311 312 312 313 312 312 310 312 315 316 314 311 313 314 316 319 319 315 313 315 316 314 315 316 314 312 314 315 317 318 318 319
300 299 299 300 300 301 301 301 303 304 306 307 309 309 311 312 312 313 312 310 314 314 314 315 313 313 315 315 317 317 317 314 316 316 315 314 312 310 312 313 313 316 317 318 318
297 298 299 299 301 301 301 300 301 302 306 304 306 309 309 312 312 311 311 310 314 313 314 314 314 314 315 315 316 314 314 316 314 315 315 314 315 312 313 313 313 314 315 317 317
297 297 298 300 300 300 300 301 301 302 305 304 307 308 309 309 311 312 311 310 312 314 313 311 314 314 314 314 315 313 313 315 314 315 319 314 316 312 312 313 313 314 316 316 315
298 297 299 300 301 299 300 301 303 304 303 306 308 309 309 310 311 312 312 311 314 315 316 313 312 312 314 314 314 314 314 315 319 320 315 311 315 314 310 310 310 309 313 314 314
297 297 299 300 300 300 300 301 303 300 301 305 307 308 309 308 310 311 312 312 311 314 314 315 316 312 311 314 315 317 315 311 310 313 314 311 316 314 312 313 314 313 314 314 314
298 299 299 299 299 298 300 301 301 301 301 306 306 308 309 308 307 310 311 311 312 312 314 315 313 310 311 312 314 316 317 312 310 305 306 310 310 312 311 310 311 313 314 314 314
298 299 298 299 298 298 300 301 300 302 303 303 306 306 309 308 309 309 310 311 311 310 309 311 313 309 311 312 312 314 312 316 315 313 313 312 312 312 313 311 312 312 311 310 311
299 298 298 297 298 299 300 299 300 300 302 304 305 306 305 308 308 309 309 309 310 310 310 310 310 308 310 312 315 314 314 312 312 314 314 310 310 307 310 309 311 309 309 310 310
297 297 298 298 299 298 299 298 298 297 299 301 301 303 306 306 307 309 309 308 310 309 311 311 311 312 311 310 311 313 313 314 314 309 311 310 310 309 308 307 310 309 309 310 310
297 296 298 298 299 298 296 294 298 298 298 300 302 302 302 307 308 308 307 307 308 308 309 311 312 311 312 310 310 313 313 312 313 309 313 315 313 307 308 308 310 309 309 310 310
296 296 297 298 298 295 291 292 296 298 298 299 301 301 301 301 305 307 307 307 308 308 309 310 311 312 311 311 310 313 313 312 313 314 313 312 311 310 308 309 309 308 309 309 308
296 292 296 297 297 296 294 292 296 297 299 300 300 302 302 302 306 306 307 307 307 309 309 310 311 310 310 308 309 311 312 312 313 313 313 311 310 309 308 307 309 310 309 310 309
295 294 297 291 297 296 294 295 294 296 300 301 301 301 302 301 305 307 307 308 308 308 309 310 310 310 310 309 308 310 310 311 312 313 312 311 310 308 309 310 309 308 308 307 306
295 296 296 297 296 297 296 296 296 297 297 300 301 301 302 302 301 303 306 307 306 307 310 310 311 311 312 310 307 310 310 310 310 311 312 313 311 306 306 306 306 307 306 306 303
Wind_Speed
32 31 30 27 23 21 22 21 19 16 15 15 16 17 18 20 22 23 25 27 20 19 16 14 11 8 3 4 3 1 3 3 3 2 3 9 5 2 1 6 6 6 3 3 11
23 30 32 31 31 28 22 23 21 19 16 15 15 15 16 18 20 27 28 22 20 17 16 15 13 9 3 2 2 3 3 6 4 1 1 6 3 5 1 3 2 3 3 5 13
26 23 27 30 32 31 28 24 22 22 19 16 14 13 13 13 16 28 23 22 19 18 16 13 9 6 4 6 5 4 6 4 4 2 4 5 6 5 1 2 3 3 4 8 14
28 28 25 25 29 31 35 29 25 21 22 19 16 13 12 11 7 4 3 13 23 22 19 14 9 5 5 5 9 3 8 7 3 3 4 4 6 8 7 5 2 5 5 7 14
33 32 26 27 23 27 29 35 30 25 21 22 18 15 16 14 20 3 4 7 18 28 25 20 16 13 6 5 6 3 4 7 11 8 9 11 10 9 11 13 10 6 5 7 12
25 28 33 29 26 25 24 26 31 29 25 21 22 19 22 18 18 19 7 3 9 26 27 25 13 16 8 5 6 2 6 7 5 8 8 5 8 8 3 11 10 10 9 8 13
33 35 33 28 34 27 26 22 25 27 28 23 23 24 29 29 12 12 18 8 9 16 28 26 14 12 6 2 15 6 3 4 6 7 6 1 7 16 16 16 19 16 15 15 15
34 31 31 37 32 34 27 23 22 24 26 26 22 28 27 23 29 19 22 12 9 11 18 20 24 11 4 2 2 4 0 1 4 12 8 8 12 6 7 12 17 23 24 24 22
32 32 30 28 32 30 29 28 24 23 23 24 24 28 16 23 34 26 20 21 9 10 17 15 16 8 6 4 2 2 3 6 7 10 5 9 6 7 9 18 24 25 27 21 22
33 33 32 31 29 26 29 24 28 21 23 22 28 10 18 21 31 33 29 21 17 12 12 13 9 4 7 9 10 7 6 6 7 5 8 9 11 11 22 24 26 25 22 23 24
33 33 35 35 33 29 25 20 18 15 27 26 7 13 4 15 23 27 28 25 24 21 10 14 7 20 26 17 5 7 5 7 3 4 3 7 14 16 24 20 24 29 28 32 31
33 32 32 32 32 29 27 31 29 8 9 38 32 16 17 17 14 22 31 26 17 14 10 6 22 14 8 10 7 5 8 5 3 4 2 7 16 13 14 23 24 24 26 29 28
34 32 33 31 30 29 32 36 28 29 8 20 39 28 12 23 13 27 37 34 17 16 20 20 10 18 12 13 16 17 14 5 2 0 3 5 14 15 8 21 24 23 23 20 19
34 37 33 30 29 32 34 34 30 20 7 9 18 29 36 16 10 18 41 35 9 25 18 14 21 14 16 17 17 20 15 5 6 3 6 6 11 8 4 9 8 23 22 19 21
33 35 33 34 29 29 35 31 22 19 12 11 14 20 34 16 15 28 29 30 20 10 11 14 8 12 16 18 15 9 8 14 6 7 4 7 3 5 3 7 6 15 19 21 24
34 36 35 34 36 37 29 18 27 9 8 7 16 18 18 34 7 20 25 28 18 12 21 23 11 15 11 10 17 7 6 4 4 5 9 21 9 20 8 6 4 12 23 25 28
35 36 38 38 36 36 25 26 9 15 4 6 10 17 29 24 29 10 19 19 16 9 14 20 7 2 11 8 6 6 8 4 7 9 15 9 8 21 3 3 5 12 25 26 28
31 36 40 40 40 30 30 10 16 15 13 3 9 19 30 25 20 28 15 19 24 16 8 15 13 15 6 9 8 20 14 5 9 6 8 5 10 14 1 13 22 26 28 28 25
31 34 39 40 39 36 31 14 9 3 6 8 7 15 24 25 11 25 22 17 23 17 15 15 16 8 5 6 17 11 17 11 4 2 2 5 7 8 9 8 13 13 15 17 7
31 39 35 40 37 36 14 22 5 3 3 14 16 16 17 27 17 27 27 21 16 24 10 3 7 5 18 11 15 12 9 9 8 8 9 4 4 9 2 7 3 4 7 10 13
33 13 24 36 36 28 13 9 8 6 6 6 8 12 11 15 28 17 22 14 22 20 21 2 2 3 14 16 19 7 9 5 3 7 6 3 8 7 10 8 5 7 12 14 15
20 5 19 37 13 6 10 7 14 6 10 3 4 7 10 13 20 24 25 27 35 25 26 19 3 5 17 17 22 22 23 23 8 10 7 2 10 2 7 6 17 14 15 14 10
16 6 23 41 12 7 5 2 4 4 6 8 8 7 8 4 12 24 19 24 27 27 21 17 8 5 3 2 5 18 19 17 16 2 10 8 7 3 8 6 11 17 14 10 6
14 5 9 25 18 6 6 7 7 11 4 5 5 15 10 18 14 14 18 4 22 30 35 28 20 12 16 11 8 15 21 20 20 13 16 14 16 4 5 8 8 14 15 12 8
11 6 7 5 13 9 8 9 11 5 7 17 4 14 10 10 19 13 15 10 12 24 23 20 21 23 15 7 10 19 24 24 21 25 18 23 18 14 13 10 16 17 16 14 13
12 6 6 3 14 14 13 9 14 12 8 8 11 18 15 17 12 17 13 10 11 14 22 20 10 17 19 12 7 11 19 24 26 25 23 19 14 12 18 22 17 19 21 16 10
16 11 11 9 11 13 13 16 18 7 5 16 21 5 12 21 12 20 21 11 9 5 20 17 13 9 22 21 2 9 21 23 22 29 26 18 27 7 9 9 18 21 19 17 12
Wind_Direction
248 249 247 249 254 250 251 256 257 258 261 261 259 257 259 258 258 258 255 256 257 255 255 256 255 265 292 263 290 353 61 178 228 145 296 358 10 34 123 152 182 196 215 250 191
261 254 253 250 246 249 251 252 254 255 257 260 260 262 262 263 264 257 251 253 254 254 252 253 257 262 236 256 245 130 130 216 220 152 35 347 9 334 314 173 189 210 244 214 196
259 257 252 252 249 245 247 250 250 250 252 255 260 264 260 267 276 267 268 252 244 246 242 242 247 228 203 213 222 195 178 217 244 288 26 336 317 335 166 252 206 255 282 213 202
257 259 260 253 250 247 244 247 250 248 244 246 249 253 247 247 233 221 210 213 218 222 222 219 207 182 202 202 216 200 221 218 205 234 326 315 321 304 260 240 246 301 297 242 217
256 253 253 252 255 249 248 247 248 246 245 240 240 238 229 222 229 213 191 207 207 204 206 202 194 195 183 210 226 220 234 224 239 280 286 279 273 259 264 260 281 290 289 256 241
252 253 251 254 255 253 251 245 246 244 243 239 234 231 226 238 250 230 244 200 221 208 202 200 211 201 217 213 179 229 204 258 279 282 281 240 268 270 213 241 249 280 291 266 248
251 252 255 258 253 256 255 256 248 243 240 239 232 229 231 231 243 241 217 199 203 218 206 203 199 185 203 241 230 260 316 308 227 222 249 213 278 241 244 254 270 273 275 266 260
251 250 251 248 250 251 251 254 252 246 238 235 236 226 236 244 244 241 222 189 176 202 217 212 204 216 193 257 5 155 134 237 266 195 230 163 260 263 241 259 264 267 268 260 267
251 249 249 251 248 248 250 250 252 246 239 232 236 228 236 229 234 233 220 211 182 199 210 214 211 216 206 119 18 332 179 220 291 205 173 194 252 252 239 244 257 259 267 266 271
249 248 247 250 252 249 244 246 245 246 237 232 233 249 226 208 222 226 212 208 198 189 186 189 182 191 188 185 205 187 186 226 209 222 210 229 248 263 257 270 269 264 264 271 280
250 247 244 244 246 246 241 231 226 239 228 214 215 225 342 203 203 214 204 191 188 192 189 184 181 209 205 202 200 162 194 196 221 244 192 237 257 258 270 267 264 265 267 262 264
248 244 241 238 238 235 235 223 220 226 232 230 230 235 238 184 182 202 191 182 187 196 146 180 222 207 148 193 210 198 212 214 270 265 175 293 273 265 260 264 253 261 269 268 267
246 242 239 237 233 226 224 228 221 229 258 228 227 232 215 190 194 194 191 186 187 193 198 203 216 190 181 190 204 222 214 178 170 319 277 22 288 267 243 255 261 258 261 261 253
247 239 233 227 227 221 221 228 219 227 244 222 202 225 219 202 219 193 202 181 179 205 194 222 231 189 187 204 193 221 222 144 173 121 233 148 270 216 227 239 239 241 234 238 247
245 234 228 218 216 210 220 222 215 215 232 192 197 211 210 199 157 199 210 199 195 176 168 212 157 181 202 209 181 223 159 201 184 220 33 243 266 272 221 240 235 247 248 252 261
244 229 223 219 218 223 209 202 198 222 236 189 166 174 170 201 215 180 189 199 203 199 202 216 192 183 198 177 187 130 82 86 148 175 233 236 195 270 225 203 215 250 257 262 267
236 227 218 216 212 210 202 187 212 221 127 186 184 178 186 191 206 200 186 190 187 197 189 212 199 221 160 154 158 170 126 163 210 209 230 186 175 242 263 331 216 262 268 268 277
237 222 218 216 213 202 192 208 224 209 207 194 186 189 193 190 206 200 202 185 214 199 180 187 204 202 182 200 177 196 192 182 205 198 235 149 223 234 141 233 254 261 269 275 277
225 218 212 209 202 206 192 214 222 172 184 191 192 202 197 204 187 199 212 200 189 190 199 199 214 190 186 170 169 188 209 200 98 123 75 211 284 300 258 246 251 273 277 272 291
221 204 200 203 203 201 211 220 197 192 165 216 214 198 200 198 205 192 197 198 196 200 218 222 208 192 183 162 211 179 148 191 207 209 227 244 250 230 246 246 253 268 125 94 115
191 178 208 208 202 201 216 220 202 234 166 191 235 239 227 194 206 202 204 199 197 192 207 153 246 206 157 205 192 168 194 208 187 196 204 231 248 202 223 216 176 164 103 112 107
180 180 189 197 193 197 213 154 188 189 201 172 250 289 216 218 204 207 210 207 192 179 204 203 185 198 209 204 205 202 205 199 200 221 223 205 245 219 231 199 158 137 128 123 115
176 161 179 186 199 182 141 176 162 141 184 175 218 207 322 253 225 207 204 207 185 195 197 189 201 181 165 28 173 213 213 213 219 62 194 209 244 188 136 136 153 149 152 148 152
162 161 174 198 212 156 134 187 190 202 211 184 233 217 244 269 248 211 212 193 195 203 200 189 216 228 225 226 147 196 211 209 208 220 221 220 245 142 153 149 164 168 168 153 147
167 206 195 173 195 177 180 168 191 172 201 205 210 226 211 248 217 217 222 210 188 201 201 203 216 214 227 253 189 195 207 212 209 218 215 229 223 223 190 195 192 190 183 176 182
154 145 143 128 175 177 181 204 193 206 174 200 224 202 203 212 267 200 173 202 202 195 202 203 240 210 232 236 210 216 212 216 216 222 226 239 237 225 207 190 204 193 184 172 162
169 158 158 147 158 176 202 205 210 161 258 241 216 212 196 224 195 296 195 173 137 176 201 200 212 197 227 222 197 238 217 214 217 223 214 218 230 125 196 197 182 181 170 159 155